| time (UTC) | temp F | wind direction | speed MPH | gust MPH | rain 1hr in | rain 24hr in | rain mn in | humidity % | barometer mb |
| 20260504184554 | 75 | 140 | 1.0 | 10.0 | 0.00 | 0.00 | 0.00 | 33 | 1010.9 |
| 20260504183058 | 74 | 126 | 2.0 | 11.0 | 0.00 | 0.00 | 0.00 | 32 | 1011.1 |
| 20260504181549 | 74 | 54 | 2.0 | 8.0 | 0.00 | 0.00 | 0.00 | 33 | 1011.3 |
| 20260504180122 | 73 | 130 | 0.0 | 11.0 | 0.00 | 0.00 | 0.00 | 36 | 1011.4 |
| 20260504174545 | 73 | 106 | 0.0 | 10.0 | 0.00 | 0.00 | 0.00 | 33 | 1011.6 |
| 20260504173043 | 73 | 141 | 0.0 | 12.0 | 0.00 | 0.00 | 0.00 | 36 | 1011.8 |
| 20260504171541 | 73 | 81 | 0.0 | 7.0 | 0.00 | 0.00 | 0.00 | 33 | 1012.0 |
| 20260504081558 | 47 | 125 | 0.0 | 0.0 | 0.00 | 0.00 | 0.00 | 63 | 1015.1 |
| 20260504044539 | 46 | 125 | 0.0 | 0.0 | 0.00 | 0.00 | 0.00 | 63 | 1014.2 |
| 20260504043043 | 46 | 125 | 0.0 | 0.0 | 0.00 | 0.00 | 0.00 | 63 | 1014.1 |
| 20260504041534 | 47 | 125 | 0.0 | 0.0 | 0.00 | 0.00 | 0.00 | 60 | 1014.0 |
| 20260504040028 | 48 | 125 | 0.0 | 0.0 | 0.00 | 0.00 | 0.00 | 61 | 1013.9 |
| 20260504034527 | 48 | 125 | 0.0 | 0.0 | 0.00 | 0.00 | 0.00 | 59 | 1013.7 |
| 20260504033026 | 48 | 125 | 0.0 | 0.0 | 0.00 | 0.00 | 0.00 | 55 | 1013.6 |
| 20260504031526 | 49 | 125 | 0.0 | 0.0 | 0.00 | 0.00 | 0.00 | 57 | 1013.6 |
| 20260504030024 | 50 | 125 | 0.0 | 0.0 | 0.00 | 0.00 | 0.00 | 52 | 1013.5 |
| 20260504024524 | 50 | 125 | 0.0 | 0.0 | 0.00 | 0.00 | 0.00 | 52 | 1013.5 |
| 20260504023023 | 50 | 125 | 0.0 | 0.0 | 0.00 | 0.00 | 0.00 | 52 | 1013.6 |
| 20260504021523 | 50 | 125 | 0.0 | 0.0 | 0.00 | 0.00 | 0.00 | 53 | 1013.5 |
| 20260504020022 | 50 | 125 | 0.0 | 0.0 | 0.00 | 0.00 | 0.00 | 55 | 1013.5 |
| 20260504014526 | 51 | 125 | 0.0 | 0.0 | 0.00 | 0.00 | 0.00 | 57 | 1013.5 |
| 20260504013021 | 51 | 125 | 0.0 | 0.0 | 0.00 | 0.00 | 0.00 | 55 | 1013.3 |
| 20260504011518 | 52 | 125 | 0.0 | 0.0 | 0.00 | 0.00 | 0.00 | 55 | 1013.1 |
| 20260504010016 | 53 | 125 | 0.0 | 0.0 | 0.00 | 0.00 | 0.00 | 53 | 1012.8 |
| 20260504004518 | 54 | 125 | 0.0 | 0.0 | 0.00 | 0.00 | 0.00 | 49 | 1012.6 |
| 20260504003016 | 55 | 125 | 0.0 | 0.0 | 0.00 | 0.00 | 0.00 | 47 | 1012.4 |
| 20260504001515 | 56 | 125 | 0.0 | 0.0 | 0.00 | 0.00 | 0.00 | 43 | 1012.2 |
| 20260504000015 | 57 | 125 | 0.0 | 0.0 | 0.00 | 0.00 | 0.00 | 40 | 1012.1 |
| 20260503234519 | 58 | 125 | 0.0 | 0.0 | 0.00 | 0.00 | 0.00 | 38 | 1012.0 |
| 20260503233013 | 58 | 125 | 0.0 | 0.0 | 0.00 | 0.00 | 0.00 | 36 | 1011.8 |
| 20260503231516 | 59 | 126 | 0.0 | 7.0 | 0.00 | 0.00 | 0.00 | 34 | 1011.8 |
| 20260503230015 | 59 | 86 | 0.0 | 2.0 | 0.00 | 0.00 | 0.00 | 34 | 1011.6 |
| 20260503224513 | 60 | 82 | 0.0 | 3.0 | 0.00 | 0.00 | 0.00 | 32 | 1011.6 |
| 20260503223013 | 60 | 330 | 0.0 | 2.0 | 0.00 | 0.00 | 0.00 | 33 | 1011.5 |
| 20260503221511 | 60 | 55 | 0.0 | 3.0 | 0.00 | 0.00 | 0.00 | 32 | 1011.4 |
| 20260503220011 | 60 | 44 | 0.0 | 3.0 | 0.00 | 0.00 | 0.00 | 32 | 1011.4 |
| 20260503214532 | 60 | 28 | 1.0 | 6.0 | 0.00 | 0.00 | 0.00 | 31 | 1011.5 |
| 20260503213010 | 60 | 86 | 0.0 | 6.0 | 0.00 | 0.00 | 0.00 | 32 | 1011.3 |
| 20260503211510 | 60 | 143 | 0.0 | 6.0 | 0.00 | 0.00 | 0.00 | 34 | 1011.3 |
| 20260503210010 | 60 | 9 | 0.0 | 9.0 | 0.00 | 0.00 | 0.00 | 34 | 1011.3 |
| 20260503204507 | 60 | 53 | 1.0 | 6.0 | 0.00 | 0.00 | 0.00 | 32 | 1011.2 |
| 20260503203007 | 60 | 292 | 0.0 | 8.0 | 0.00 | 0.00 | 0.00 | 32 | 1011.0 |
| 20260503201507 | 60 | 148 | 1.0 | 13.0 | 0.00 | 0.00 | 0.00 | 34 | 1011.2 |
| 20260503200006 | 60 | 40 | 0.0 | 4.0 | 0.00 | 0.00 | 0.00 | 34 | 1011.2 |
| 20260503194504 | 61 | 119 | 2.0 | 17.0 | 0.00 | 0.00 | 0.00 | 34 | 1011.5 |
| 20260503193002 | 60 | 92 | 0.0 | 6.0 | 0.00 | 0.00 | 0.00 | 39 | 1011.5 |
| 20260503191502 | 59 | 9 | 0.0 | 7.0 | 0.00 | 0.00 | 0.00 | 35 | 1011.8 |
| 20260503190056 | 58 | 93 | 0.0 | 6.0 | 0.00 | 0.00 | 0.00 | 39 | 1011.9 |